Location: Albuquerque Trailhead
(34.7934°N, 106.3736°W)
Time: 16:24:17
(UTC+00:00)

Cosmos 1331 Rocket - Pass Details

Date: 20 June 2021
Orbit: 749 x 778 km, 74.0° (Epoch: 27 July)

Event Time Altitude Azimuth Distance (km) Brightness Sun altitude
Exits shadow 03:44:37 - 189° (S) 2,862 6.6 -14.5°
Reaches altitude 10° 03:46:06 10° 187° (S) 2,285 6.1 -14.8°
Maximum altitude 03:51:16 70° 104° (ESE) 817 3.9 -15.5°
Drops below altitude 10° 03:56:29 10° 22° (NNE) 2,319 6.8 -16.3°
Sets 03:58:53 0° 20° (NNE) 3,253 7.6 -16.6°
